Theta_e
317 318 321 323 325 326 327 328 328 328 328 328 328 327 327 327 327 327 326 326 326 326 326 326 326 325 325 325 324 324 324 324 324 324 323 322 322 321 321 320 320 320
314 315 316 318 320 322 325 327 327 327 327 328 328 327 328 327 327 327 327 326 326 326 326 326 326 326 325 325 325 325 325 325 324 324 324 323 322 322 321 321 320 320
313 313 313 314 315 317 319 323 325 327 327 327 327 327 327 327 327 328 327 327 327 326 326 326 326 326 326 325 325 325 325 325 325 325 324 324 323 322 322 321 321 320
313 313 313 313 313 313 314 317 320 323 325 326 327 327 327 327 327 327 327 327 327 326 327 326 326 326 326 326 325 325 325 325 325 325 324 324 324 323 323 322 322 321
313 313 313 313 313 312 312 313 314 317 320 323 325 326 326 326 326 327 327 327 327 327 327 326 326 326 326 326 325 325 325 325 325 325 325 324 324 324 324 323 323 322
313 313 313 313 313 313 312 312 313 314 315 318 321 323 325 325 326 326 326 326 326 326 326 326 326 326 326 326 326 325 325 325 325 325 324 324 324 324 324 324 324 323
313 313 313 313 313 313 312 311 312 312 313 315 317 320 322 324 325 326 326 326 326 326 326 326 326 326 326 326 326 326 325 325 325 325 324 324 324 324 324 324 324 324
313 313 313 313 313 312 312 311 311 310 311 313 315 316 319 322 324 324 325 325 325 325 325 325 326 326 326 326 326 325 326 325 325 325 324 324 324 324 324 324 324 324
313 313 313 312 312 311 311 311 310 309 309 309 311 313 315 319 321 323 324 325 325 325 325 325 325 325 325 325 325 325 325 325 325 325 325 324 324 324 324 324 324 324
312 313 312 311 311 311 310 310 310 310 309 308 308 309 311 314 317 320 322 323 324 324 324 325 324 324 325 325 325 325 325 325 325 325 325 325 324 324 324 324 323 323
312 311 311 310 310 309 309 310 309 309 309 308 308 308 308 309 312 315 318 320 322 323 324 324 324 324 324 324 325 325 324 325 325 324 325 324 324 324 324 323 323 323
310 309 308 308 308 308 307 308 308 308 308 308 308 307 307 307 308 310 314 317 319 321 322 323 324 324 324 324 324 324 324 324 324 324 324 324 324 324 324 324 323 323
307 306 306 306 306 306 306 306 306 306 307 307 307 307 307 307 307 307 309 313 317 319 321 321 322 323 323 324 324 324 324 323 324 324 324 324 324 324 324 323 323 324
305 305 305 305 305 305 305 305 305 305 306 306 306 306 306 306 306 306 307 308 311 314 317 319 321 321 322 322 323 323 323 323 323 323 323 323 323 323 323 323 323 323
304 305 304 305 305 305 304 304 304 304 305 305 305 305 305 305 305 306 306 306 307 308 311 313 316 318 320 321 321 321 322 322 322 322 323 323 323 323 323 323 323 323
304 304 304 304 304 304 304 303 304 304 304 304 304 304 304 304 304 305 305 305 305 305 306 307 309 311 313 316 318 320 320 321 321 322 322 322 322 322 322 323 323 323
303 304 304 305 304 304 303 303 303 304 304 304 304 304 304 303 303 304 304 304 304 304 304 304 304 305 306 308 312 316 318 319 319 320 321 322 322 322 322 322 322 322
303 303 304 304 304 303 303 303 303 303 303 303 303 303 303 303 303 303 303 303 303 303 303 303 303 303 303 304 305 309 313 315 316 316 317 319 320 321 321 322 321 322
301 302 303 303 303 303 302 303 303 303 303 302 302 303 303 303 303 302 302 302 302 303 303 302 302 302 302 302 302 303 305 308 310 311 312 313 316 317 319 320 320 319
300 301 301 301 302 302 302 302 302 302 302 301 301 302 302 302 302 302 301 301 301 301 301 301 302 302 302 302 301 301 301 302 303 304 305 308 310 313 315 316 317 317
298 299 300 300 301 301 301 302 301 301 301 300 300 301 301 301 301 300 300 300 300 299 300 300 300 301 301 301 301 300 300 300 299 299 300 302 304 306 309 312 313 315
295 296 297 298 299 300 301 301 301 300 299 299 299 300 300 300 300 299 299 299 299 299 298 299 299 299 299 299 299 298 298 297 297 297 298 298 300 301 303 306 308 310
293 293 294 295 296 297 298 299 299 300 299 298 298 299 299 299 299 299 298 298 298 298 298 298 299 299 298 298 297 297 296 295 295 296 297 297 298 299 300 301 303 305
292 292 292 293 293 294 295 296 297 297 298 297 296 297 298 299 298 299 299 298 297 298 297 297 298 298 298 298 298 296 295 295 295 296 296 297 298 298 299 300 300 301
292 292 291 292 292 292 292 293 294 294 295 295 296 296 297 298 298 298 299 299 298 297 297 297 297 298 298 298 298 297 296 296 296 296 296 297 297 298 298 299 299 300
291 291 291 291 291 291 292 292 292 293 293 294 294 295 295 297 297 298 299 300 299 297 297 297 297 297 297 297 297 297 296 296 296 296 296 296 297 297 297 298 298 299
Wind_Speed
18 20 22 25 28 31 32 33 32 32 33 34 34 35 36 36 36 36 36 37 38 40 41 42 42 41 41 40 39 39 39 39 40 40 40 40 41 41 42 43 43 42
14 17 20 23 26 28 31 32 33 33 34 35 35 35 36 36 36 36 36 36 37 39 40 41 41 41 40 40 40 39 39 39 40 40 40 40 40 40 41 42 43 43
14 15 17 20 23 26 28 30 32 34 35 36 36 36 36 35 35 36 36 36 37 38 39 40 40 41 41 41 40 40 40 39 40 40 40 40 39 40 41 41 41 42
15 16 17 19 20 23 25 26 29 32 34 35 36 36 35 35 35 35 36 36 37 37 38 39 39 40 40 41 40 40 40 40 41 40 39 40 39 39 39 39 40 40
16 18 20 21 21 21 22 24 27 29 31 33 35 35 35 35 35 36 36 36 37 37 37 38 38 39 39 40 40 40 40 40 41 40 40 40 39 39 39 38 39 39
16 19 22 24 24 22 22 23 25 27 29 31 32 33 34 34 35 36 36 37 37 37 37 37 38 38 39 39 39 40 40 40 41 40 41 41 40 40 39 38 39 39
17 21 24 25 25 25 24 24 25 26 27 28 29 31 32 33 34 35 36 36 37 37 37 38 38 38 38 38 39 40 40 41 41 40 41 41 40 40 40 39 39 39
19 23 25 26 26 26 26 26 25 26 26 27 28 29 30 31 33 34 35 36 36 37 37 37 38 38 38 38 38 39 39 40 40 39 40 41 40 40 41 40 39 39
21 23 25 25 26 26 26 26 26 26 25 26 26 27 28 29 31 32 34 35 36 37 37 37 38 38 38 38 38 38 39 40 40 40 40 40 40 41 41 39 38 38
22 24 24 24 24 25 26 26 26 26 26 26 25 25 26 27 28 30 31 33 34 35 36 36 37 37 37 38 38 39 39 40 40 39 40 40 40 41 40 38 38 38
23 24 24 24 24 25 26 26 26 27 27 26 26 25 25 25 26 27 28 31 33 34 35 35 36 37 37 38 38 38 39 40 39 39 40 40 41 41 40 38 38 38
23 23 23 24 25 25 26 26 26 26 26 26 25 25 25 25 25 26 26 28 30 31 33 34 35 36 37 37 38 38 38 39 39 39 39 40 40 40 39 39 39 39
21 21 22 23 24 25 25 26 25 25 25 25 24 24 25 25 25 26 26 26 28 29 30 32 33 34 35 36 37 37 37 37 37 37 38 39 39 39 39 39 39 40
19 19 20 21 22 23 25 25 26 26 25 25 24 24 24 23 23 25 25 26 26 27 28 29 30 32 33 34 35 36 35 36 36 36 37 37 38 39 38 38 39 40
18 19 20 21 21 22 23 24 25 26 26 26 26 25 24 23 22 22 24 25 26 27 27 27 28 30 30 31 33 34 34 35 35 35 36 37 37 38 38 39 40 41
18 19 20 20 21 21 21 22 23 24 25 26 26 26 25 24 23 22 22 24 25 26 27 26 27 27 28 28 29 30 32 34 35 35 35 35 36 37 37 38 38 39
18 19 20 20 21 22 21 22 22 23 24 24 24 25 24 24 24 24 24 24 24 26 26 26 26 25 25 26 27 27 28 30 32 34 35 36 36 36 36 37 37 37
18 19 20 20 21 22 23 23 23 23 22 23 23 23 23 23 24 24 24 24 24 25 26 26 26 25 24 24 25 25 26 27 29 30 30 32 34 34 34 34 33 34
19 19 20 20 21 22 23 23 24 24 23 23 23 22 22 23 23 23 24 23 24 25 26 26 25 24 24 23 24 24 25 27 30 31 30 31 31 31 31 31 31 32
19 20 20 21 21 22 23 23 24 24 24 23 23 23 23 23 23 23 23 23 23 24 26 27 26 25 24 23 23 23 23 24 28 30 32 34 34 33 32 32 34 34
19 20 20 21 22 22 23 23 24 24 24 24 24 24 24 24 24 24 24 24 24 24 26 27 26 25 24 23 23 23 24 24 25 27 29 32 34 34 33 34 35 33
19 19 20 21 22 22 23 24 24 25 25 25 25 25 25 25 24 24 24 25 25 24 25 27 26 24 24 24 23 23 23 23 24 25 27 29 30 30 31 33 34 32
20 19 20 20 21 22 23 24 24 26 25 25 27 28 28 27 27 26 25 25 25 24 24 26 26 24 22 22 22 20 20 20 21 24 26 28 29 28 28 30 31 30
20 20 20 20 21 21 21 22 23 25 25 25 26 28 29 28 28 28 28 25 25 24 23 24 26 23 20 19 18 17 17 19 20 22 25 26 28 28 28 28 29 29
22 21 20 21 21 21 21 22 23 24 25 25 25 26 28 28 28 29 30 28 25 23 22 22 23 22 18 17 17 16 16 17 18 21 24 26 26 28 28 27 27 27
24 23 23 22 22 22 22 22 23 24 25 26 26 26 27 28 28 28 30 30 27 25 23 21 20 20 18 16 16 16 15 16 17 20 23 25 26 26 27 27 26 25
Wind_Direction
282 279 276 273 269 267 265 263 261 260 259 259 258 258 259 260 261 259 255 253 251 250 251 250 249 248 248 247 247 245 244 244 245 245 245 243 243 242 243 243 244 244
298 291 286 282 278 274 271 268 266 264 262 262 261 261 262 262 262 261 260 258 255 253 253 252 251 250 249 248 247 245 244 244 245 245 246 245 244 244 244 245 245 245
329 316 303 294 288 284 280 276 272 268 266 265 263 263 262 262 262 262 261 260 258 256 255 254 252 251 250 249 247 246 244 244 245 246 247 246 246 246 246 247 247 247
348 339 327 315 304 296 291 284 278 273 270 268 267 265 264 264 263 262 261 261 259 258 257 255 254 253 251 250 248 247 246 246 247 247 247 248 247 247 247 247 248 248
350 346 339 329 318 308 299 291 286 282 277 273 272 270 268 266 265 263 262 261 259 258 257 256 255 253 252 251 249 247 247 247 247 247 247 248 248 248 248 248 247 248
344 342 338 331 324 316 307 299 294 291 286 282 279 276 273 270 267 265 264 262 261 259 257 256 255 253 252 250 249 247 246 247 247 246 246 247 247 248 247 247 247 247
339 338 335 330 325 321 315 309 304 300 296 292 287 282 278 274 271 269 267 265 263 261 259 258 256 254 252 250 248 247 246 246 246 245 245 246 247 247 247 246 247 247
335 334 332 329 327 326 322 319 316 312 308 303 296 291 286 280 276 274 272 269 266 264 262 261 259 257 255 251 248 247 246 246 246 244 244 246 246 247 247 247 247 248
330 329 328 328 328 328 326 325 323 320 318 312 306 301 294 287 283 279 276 273 270 268 266 264 263 261 258 255 251 249 248 247 247 245 245 245 245 247 248 248 248 249
326 326 326 325 325 325 324 324 322 321 320 318 314 309 303 297 291 285 282 277 273 271 269 268 266 264 262 259 256 253 252 250 249 248 247 247 247 248 249 249 248 249
325 324 324 323 322 321 321 320 320 320 320 320 319 315 310 305 299 293 289 284 279 276 274 272 270 268 265 263 260 258 256 254 253 251 250 250 250 250 251 250 250 251
326 325 324 323 323 322 321 320 320 320 319 320 320 318 315 311 306 302 297 292 288 284 280 277 275 272 269 267 265 262 260 258 256 254 254 253 253 253 253 253 252 253
330 329 327 326 325 324 322 322 322 321 319 318 317 317 317 315 312 309 305 300 296 291 287 283 280 276 273 271 269 266 263 260 258 257 256 256 256 256 255 255 254 254
335 333 331 329 327 325 323 323 322 321 319 317 316 315 315 317 316 313 309 305 300 295 292 289 286 281 278 275 273 270 266 263 261 260 259 258 258 258 257 256 256 255
337 335 332 331 330 328 327 326 325 324 322 319 318 316 315 316 314 313 311 308 305 301 297 294 291 287 285 282 278 275 271 268 266 263 261 260 260 260 259 258 257 256
338 336 336 336 336 335 334 334 332 331 329 327 325 322 320 318 314 311 311 310 309 307 304 301 296 292 289 287 283 281 278 274 270 267 265 263 261 261 260 259 258 257
342 340 341 341 342 341 340 339 338 337 336 334 332 330 326 323 319 315 312 311 310 309 307 306 303 300 296 289 284 283 282 280 277 272 268 265 262 260 259 258 259 260
347 345 344 343 343 343 342 341 340 339 340 339 336 335 332 329 325 321 317 314 311 308 308 308 307 307 304 297 289 281 278 280 280 279 276 270 265 261 259 259 261 262
350 348 348 345 344 342 340 340 340 339 341 340 337 336 335 332 330 326 322 320 316 312 310 309 310 310 308 305 300 291 283 278 276 278 279 277 273 269 266 266 267 269
352 350 349 346 344 342 339 339 339 338 340 340 337 336 335 333 331 329 326 323 320 316 313 311 312 314 313 310 307 304 298 289 281 278 276 273 272 272 271 271 272 270
355 351 349 346 344 341 339 338 337 337 339 339 336 334 333 331 331 329 327 325 322 319 314 312 315 318 317 314 311 307 305 300 294 289 283 276 272 270 269 270 270 270
358 354 351 348 345 342 339 337 336 336 337 338 334 332 331 331 330 328 326 325 324 321 316 314 317 319 316 313 311 308 305 303 300 296 292 286 282 277 273 270 269 271
354 351 350 347 345 343 339 337 335 333 335 336 333 330 330 330 329 327 326 324 324 323 320 317 319 323 319 314 313 312 309 305 302 298 294 290 289 286 283 280 276 274
348 347 345 343 341 339 336 335 334 332 332 333 330 326 326 327 327 325 325 325 324 324 323 320 322 328 329 323 321 321 315 308 303 299 294 291 290 290 289 287 285 283
343 341 341 339 337 335 332 331 331 330 330 330 328 324 322 323 324 323 323 324 324 323 323 322 323 330 336 333 329 328 321 312 306 300 294 292 293 293 293 292 290 289
339 338 337 336 334 333 331 329 329 329 329 328 327 325 322 320 321 321 320 322 323 324 324 325 325 328 334 335 331 328 324 316 307 298 292 293 294 294 294 295 294 294